DIRECTV 11

Last updated on Fri Dec 19 2025 00:02:49 GMT+0000 (Coordinated Universal Time)

1 32729U 08013A 25352.54375580 -.00000101 00000+0 00000+0 0 9990 2 32729 0.0311 213.2373 0000494 327.9303 2.8082 1.00273990 43788
UTC large
Height (km)
Speed (km/s)
/
Latitude / Longitude
Inclination (degrees)
Orbital Period (minutes)
Azimuth
Elevation
Range (km)
Doppler Factor

Next 0 passes for location: London (51.5072 / 0.1276)

Sorry there are no passes over London.